When you browse on this site, cookies collect data to enhance your experience and personalize the content and advertising you see.
Visit our Privacy Policy to learn more. By continuing to use the site, you agree to this use of cookies and data.

Hourly Weather Soroga

Today, 6 July, Monday

Time Temperature Precipitation Wind Pressure Humidity
00:00 +16°C° 0 mm 2 mps 737 mmHg 97%
01:00 +16°C° 0 mm 3 mps 736 mmHg 97%
02:00 +16°C° 0 mm 3 mps 736 mmHg 97%
03:00 +17°C° 0 mm 3 mps 736 mmHg 95%
04:00 +17°C° 0 mm 3 mps 736 mmHg 93%
05:00 +18°C° 0 mm 4 mps 736 mmHg 92%
06:00 +19°C° 0 mm 4 mps 736 mmHg 85%
07:00 +21°C° 0 mm 4 mps 736 mmHg 79%
08:00 +22°C° 0 mm 4 mps 736 mmHg 73%
09:00 +23°C° 0.2 mm 4 mps 736 mmHg 72%
10:00 +25°C° 0.2 mm 5 mps 736 mmHg 72%
11:00 +26°C° 0.2 mm 5 mps 736 mmHg 71%
12:00 +26°C° 0.8 mm 5 mps 736 mmHg 71%
13:00 +26°C° 0.8 mm 4 mps 736 mmHg 72%
14:00 +26°C° 0.8 mm 4 mps 736 mmHg 73%
15:00 +26°C° 0.7 mm 3 mps 736 mmHg 78%
16:00 +25°C° 0.7 mm 2 mps 735 mmHg 84%
17:00 +24°C° 0.7 mm 1 mps 735 mmHg 89%
18:00 +23°C° 1 mm 1 mps 735 mmHg 92%
19:00 +22°C° 1 mm 1 mps 735 mmHg 94%
20:00 +22°C° 1 mm 1 mps 735 mmHg 96%
21:00 +21°C° 1 mm 1 mps 735 mmHg 96%
22:00 +21°C° 1 mm 1 mps 735 mmHg 97%
23:00 +19°C° 1 mm 2 mps 735 mmHg 98%

Tomorrow, 7 July, Tuesday

Time Temperature Precipitation Wind Pressure Humidity
00:00 +19°C° 1.7 mm 2 mps 735 mmHg 98%
01:00 +19°C° 1.7 mm 2 mps 735 mmHg 98%
02:00 +19°C° 1.7 mm 2 mps 735 mmHg 98%
03:00 +18°C° 0.6 mm 2 mps 735 mmHg 98%
04:00 +19°C° 0.6 mm 1 mps 735 mmHg 98%
05:00 +19°C° 0.6 mm 1 mps 735 mmHg 97%
06:00 +19°C° 0.3 mm 1 mps 735 mmHg 97%
07:00 +19°C° 0.3 mm 1 mps 735 mmHg 96%
08:00 +19°C° 0.3 mm 1 mps 735 mmHg 96%
09:00 +20°C° 0.3 mm 1 mps 735 mmHg 95%
10:00 +19°C° 0.3 mm 2 mps 735 mmHg 94%
11:00 +19°C° 0.3 mm 2 mps 735 mmHg 93%
12:00 +18°C° 0.3 mm 2 mps 735 mmHg 92%
13:00 +18°C° 0.3 mm 3 mps 735 mmHg 92%
14:00 +18°C° 0.3 mm 3 mps 736 mmHg 92%
15:00 +18°C° 0 mm 3 mps 736 mmHg 89%
16:00 +18°C° 0 mm 3 mps 736 mmHg 86%
17:00 +18°C° 0 mm 3 mps 736 mmHg 84%
18:00 +17°C° 0 mm 2 mps 736 mmHg 85%
19:00 +17°C° 0 mm 2 mps 735 mmHg 87%
20:00 +16°C° 0 mm 2 mps 735 mmHg 88%
21:00 +15°C° 0 mm 2 mps 735 mmHg 90%
22:00 +14°C° 0 mm 2 mps 736 mmHg 91%
23:00 +13°C° 0 mm 1 mps 736 mmHg 93%

Day after tomorrow, 8 July, Wednesday

Time Temperature Precipitation Wind Pressure Humidity
00:00 +13°C° 0.3 mm 2 mps 736 mmHg 93%
01:00 +13°C° 0.3 mm 2 mps 735 mmHg 93%
02:00 +13°C° 0.3 mm 2 mps 735 mmHg 93%
03:00 +13°C° 1.2 mm 2 mps 736 mmHg 94%
04:00 +12°C° 1.2 mm 1 mps 736 mmHg 96%
05:00 +12°C° 1.2 mm 1 mps 736 mmHg 97%
06:00 +13°C° 0.5 mm 1 mps 736 mmHg 97%
07:00 +13°C° 0.5 mm 1 mps 736 mmHg 97%
08:00 +13°C° 0.5 mm 1 mps 736 mmHg 97%
09:00 +14°C° 0 mm 1 mps 736 mmHg 93%
10:00 +15°C° 0 mm 1 mps 737 mmHg 88%
11:00 +18°C° 0 mm 1 mps 737 mmHg 84%
12:00 +19°C° 0.1 mm 1 mps 737 mmHg 76%
13:00 +21°C° 0.1 mm 1 mps 738 mmHg 68%
14:00 +22°C° 0.1 mm 1 mps 738 mmHg 60%
15:00 +22°C° 0.1 mm 1 mps 738 mmHg 60%
16:00 +22°C° 0.1 mm 1 mps 738 mmHg 60%
17:00 +21°C° 0.1 mm 2 mps 738 mmHg 59%
18:00 +19°C° 0.1 mm 2 mps 738 mmHg 66%
19:00 +19°C° 0.1 mm 1 mps 738 mmHg 73%
20:00 +16°C° 0.1 mm 1 mps 738 mmHg 80%
21:00 +15°C° 0 mm 1 mps 738 mmHg 81%
22:00 +14°C° 0 mm 1 mps 738 mmHg 82%
23:00 +13°C° 0 mm 1 mps 738 mmHg 83%

9 July, Thursday

Time Temperature Precipitation Wind Pressure Humidity
00:00 +12°C° 0 mm 1 mps 739 mmHg 85%
01:00 +12°C° 0 mm 1 mps 739 mmHg 87%
02:00 +12°C° 0 mm 1 mps 739 mmHg 89%
03:00 +12°C° 0 mm 1 mps 739 mmHg 88%
04:00 +13°C° 0 mm 1 mps 739 mmHg 86%
05:00 +13°C° 0 mm 1 mps 739 mmHg 85%
06:00 +14°C° 0 mm 1 mps 739 mmHg 81%
07:00 +15°C° 0 mm 2 mps 739 mmHg 77%
08:00 +16°C° 0 mm 2 mps 739 mmHg 73%
09:00 +17°C° 0 mm 2 mps 740 mmHg 69%
10:00 +18°C° 0 mm 2 mps 740 mmHg 66%
11:00 +18°C° 0 mm 2 mps 740 mmHg 62%
12:00 +19°C° 0.2 mm 3 mps 740 mmHg 62%
13:00 +19°C° 0.2 mm 3 mps 740 mmHg 62%
14:00 +19°C° 0.2 mm 3 mps 740 mmHg 62%
15:00 +19°C° 0.3 mm 3 mps 740 mmHg 64%
16:00 +19°C° 0.3 mm 3 mps 740 mmHg 66%
17:00 +19°C° 0.3 mm 3 mps 740 mmHg 69%
18:00 +17°C° 0.1 mm 2 mps 740 mmHg 73%
19:00 +16°C° 0.1 mm 2 mps 740 mmHg 77%
20:00 +15°C° 0.1 mm 2 mps 740 mmHg 81%
21:00 +14°C° 0 mm 2 mps 740 mmHg 82%
22:00 +13°C° 0 mm 2 mps 740 mmHg 84%
23:00 +12°C° 0 mm 2 mps 741 mmHg 85%

10 July, Friday

Time Temperature Precipitation Wind Pressure Humidity
00:00 +12°C° 0 mm 2 mps 741 mmHg 88%
01:00 +10°C° 0 mm 2 mps 741 mmHg 91%
02:00 +9°C° 0 mm 2 mps 741 mmHg 94%
03:00 +10°C° 0 mm 2 mps 741 mmHg 92%
04:00 +10°C° 0 mm 2 mps 741 mmHg 91%
05:00 +10°C° 0 mm 2 mps 742 mmHg 90%
06:00 +12°C° 0 mm 3 mps 742 mmHg 79%
07:00 +14°C° 0 mm 3 mps 741 mmHg 68%
08:00 +17°C° 0 mm 4 mps 741 mmHg 57%
09:00 +18°C° 0 mm 4 mps 741 mmHg 52%
10:00 +19°C° 0 mm 4 mps 741 mmHg 47%
11:00 +20°C° 0 mm 5 mps 741 mmHg 42%
12:00 +20°C° 0 mm 5 mps 741 mmHg 40%
13:00 +21°C° 0 mm 4 mps 741 mmHg 38%
14:00 +22°C° 0 mm 4 mps 741 mmHg 37%
15:00 +21°C° 0 mm 4 mps 741 mmHg 38%
16:00 +21°C° 0 mm 4 mps 740 mmHg 40%
17:00 +21°C° 0 mm 3 mps 740 mmHg 41%
18:00 +19°C° 0 mm 3 mps 740 mmHg 51%
19:00 +17°C° 0 mm 2 mps 740 mmHg 60%
20:00 +16°C° 0 mm 1 mps 740 mmHg 70%
21:00 +15°C° 0 mm 2 mps 740 mmHg 73%
22:00 +14°C° 0 mm 2 mps 740 mmHg 77%
23:00 +13°C° 0 mm 2 mps 740 mmHg 80%

11 July, Saturday

Time Temperature Precipitation Wind Pressure Humidity
00:00 +12°C° 0 mm 2 mps 740 mmHg 85%
01:00 +12°C° 0 mm 2 mps 739 mmHg 89%
02:00 +12°C° 0 mm 2 mps 739 mmHg 94%
03:00 +12°C° 0 mm 3 mps 738 mmHg 90%
04:00 +13°C° 0 mm 3 mps 738 mmHg 86%
05:00 +14°C° 0 mm 4 mps 737 mmHg 82%
06:00 +13°C° 0.7 mm 4 mps 737 mmHg 87%
07:00 +13°C° 0.7 mm 4 mps 737 mmHg 92%
08:00 +13°C° 0.7 mm 4 mps 736 mmHg 97%
09:00 +14°C° 0.5 mm 4 mps 736 mmHg 96%
10:00 +15°C° 0.5 mm 4 mps 737 mmHg 95%
11:00 +17°C° 0.5 mm 4 mps 737 mmHg 95%
12:00 +19°C° 0.1 mm 4 mps 737 mmHg 78%
13:00 +20°C° 0.1 mm 5 mps 737 mmHg 62%
14:00 +22°C° 0.1 mm 5 mps 737 mmHg 46%
15:00 +21°C° 0 mm 5 mps 737 mmHg 47%
16:00 +21°C° 0 mm 5 mps 737 mmHg 48%
17:00 +20°C° 0 mm 5 mps 737 mmHg 50%
18:00 +18°C° 0 mm 4 mps 738 mmHg 56%
19:00 +17°C° 0 mm 4 mps 738 mmHg 63%
20:00 +14°C° 0 mm 3 mps 738 mmHg 69%
21:00 +13°C° 0 mm 3 mps 738 mmHg 73%
22:00 +12°C° 0 mm 3 mps 738 mmHg 78%
23:00 +11°C° 0 mm 3 mps 738 mmHg 82%
Show more